Time,TemperatureF,DewpointF,PressureIn,WindDirection,WindDirectionDegrees,WindSpeedMPH,WindSpeedGustMPH,Humidity,HourlyPrecipIn,Conditions,Clouds,dailyrainin,SolarRadiationWatts/m^2,SoftwareType,DateUTC
2013-01-30 00:02:00,32.0,-99.9,-100.00,North,7,13.0,23.0,0,0.00,,,0.01,0.000000,,2013-01-30 06:02:00,
2013-01-30 00:11:00,32.0,-99.9,-100.00,North,353,10.0,20.0,0,0.00,,,0.01,0.000000,,2013-01-30 06:11:00,
2013-01-30 00:42:00,32.0,-99.9,-100.00,North,353,10.0,20.0,0,0.00,,,0.01,0.000000,,2013-01-30 06:42:00,
2013-01-30 00:52:00,32.0,-99.9,-100.00,North,353,10.0,20.0,0,0.00,,,0.01,0.000000,,2013-01-30 06:52:00,
2013-01-30 01:02:00,32.0,-99.9,-100.00,North,353,10.0,20.0,0,0.00,,,0.01,0.000000,,2013-01-30 07:02:00,
2013-01-30 01:11:00,32.0,-99.9,-100.00,North,1,10.0,24.0,0,0.00,,,0.01,0.000000,,2013-01-30 07:11:00,
2013-01-30 01:32:00,32.0,-99.9,-100.00,North,1,10.0,24.0,0,0.00,,,0.01,0.000000,,2013-01-30 07:32:00,
2013-01-30 01:42:00,32.0,-99.9,-100.00,North,1,10.0,24.0,0,0.00,,,0.01,0.000000,,2013-01-30 07:42:00,
2013-01-30 01:52:00,32.0,-99.9,-100.00,North,1,10.0,24.0,0,0.00,,,0.01,0.000000,,2013-01-30 07:52:00,
2013-01-30 02:02:00,32.0,-99.9,-100.00,North,1,10.0,24.0,0,0.00,,,0.01,0.000000,,2013-01-30 08:02:00,
2013-01-30 02:11:00,32.0,-99.9,-100.00,North,358,11.0,24.0,0,0.00,,,0.00,0.000000,,2013-01-30 08:11:00,
2013-01-30 02:32:00,32.0,-99.9,-100.00,North,358,11.0,24.0,0,0.00,,,0.00,0.000000,,2013-01-30 08:32:00,
2013-01-30 02:42:00,32.0,-99.9,-100.00,North,358,11.0,24.0,0,0.00,,,0.00,0.000000,,2013-01-30 08:42:00,
2013-01-30 02:52:00,32.0,-99.9,-100.00,North,358,11.0,24.0,0,0.00,,,0.00,0.000000,,2013-01-30 08:52:00,
2013-01-30 03:02:00,32.0,-99.9,-100.00,North,358,11.0,24.0,0,0.00,,,0.00,0.000000,,2013-01-30 09:02:00,
2013-01-30 03:11:00,32.0,-99.9,-100.00,North,4,12.0,30.0,0,0.00,,,0.00,0.000000,,2013-01-30 09:11:00,
2013-01-30 03:42:00,32.0,-99.9,-100.00,North,4,12.0,30.0,0,0.00,,,0.00,0.000000,,2013-01-30 09:42:00,
2013-01-30 03:52:00,32.0,-99.9,-100.00,North,4,12.0,30.0,0,0.00,,,0.00,0.000000,,2013-01-30 09:52:00,
2013-01-30 04:02:00,32.0,-99.9,-100.00,North,4,12.0,30.0,0,0.00,,,0.00,0.000000,,2013-01-30 10:02:00,
2013-01-30 04:11:00,32.0,-99.9,-100.00,North,6,14.0,24.0,0,0.00,,,0.00,0.000000,,2013-01-30 10:11:00,
2013-01-30 04:32:00,32.0,-99.9,-100.00,North,6,14.0,24.0,0,0.00,,,0.00,0.000000,,2013-01-30 10:32:00,
2013-01-30 04:42:00,32.0,-99.9,-100.00,North,6,14.0,24.0,0,0.00,,,0.00,0.000000,,2013-01-30 10:42:00,
2013-01-30 04:52:00,32.0,-99.9,-100.00,North,6,14.0,24.0,0,0.00,,,0.00,0.000000,,2013-01-30 10:52:00,
2013-01-30 05:02:00,32.0,-99.9,-100.00,North,6,14.0,24.0,0,0.00,,,0.00,0.000000,,2013-01-30 11:02:00,
2013-01-30 05:11:00,32.0,-99.9,-100.00,NNW,333,13.0,27.0,0,0.00,,,0.00,0.000000,,2013-01-30 11:11:00,
2013-01-30 05:42:00,32.0,-99.9,-100.00,NNW,333,13.0,27.0,0,0.00,,,0.00,0.000000,,2013-01-30 11:42:00,
2013-01-30 05:52:00,32.0,-99.9,-100.00,NNW,333,13.0,27.0,0,0.00,,,0.00,0.000000,,2013-01-30 11:52:00,
2013-01-30 06:03:00,32.0,-99.9,-100.00,NNW,333,13.0,27.0,0,0.00,,,0.00,0.000000,,2013-01-30 12:03:00,
2013-01-30 06:11:00,32.0,-99.9,-100.00,NNW,327,13.0,28.0,0,0.00,,,0.00,0.000000,,2013-01-30 12:11:00,
2013-01-30 06:33:00,32.0,-99.9,-100.00,NNW,327,13.0,28.0,0,0.00,,,0.00,0.000000,,2013-01-30 12:33:00,
2013-01-30 06:43:00,32.0,-99.9,-100.00,NNW,327,13.0,28.0,0,0.00,,,0.00,0.000000,,2013-01-30 12:43:00,
2013-01-30 07:03:00,32.0,-99.9,-100.00,NNW,327,13.0,28.0,0,0.00,,,0.00,0.000000,,2013-01-30 13:03:00,
2013-01-30 07:11:00,32.0,-99.9,-100.00,NNW,331,14.0,28.0,0,0.00,,,0.00,0.000000,,2013-01-30 13:11:00,
2013-01-30 07:43:00,32.0,-99.9,-100.00,NNW,331,14.0,28.0,0,0.00,,,0.00,0.000000,,2013-01-30 13:43:00,
2013-01-30 07:53:00,32.0,-99.9,-100.00,NNW,331,14.0,28.0,0,0.00,,,0.00,0.000000,,2013-01-30 13:53:00,
2013-01-30 08:03:00,32.0,-99.9,-100.00,NNW,331,14.0,28.0,0,0.00,,,0.00,0.000000,,2013-01-30 14:03:00,
2013-01-30 08:11:00,32.0,-99.9,-100.00,NNW,331,15.0,27.0,0,0.00,,,0.00,2.000000,,2013-01-30 14:11:00,
2013-01-30 08:43:00,32.0,-99.9,-100.00,NNW,331,15.0,27.0,0,0.00,,,0.00,2.000000,,2013-01-30 14:43:00,
2013-01-30 08:53:00,32.0,-99.9,-100.00,NNW,331,15.0,27.0,0,0.00,,,0.00,2.000000,,2013-01-30 14:53:00,
2013-01-30 09:04:00,32.0,-99.9,-100.00,NNW,331,15.0,27.0,0,0.00,,,0.00,2.000000,,2013-01-30 15:04:00,
2013-01-30 09:11:00,32.0,-99.9,-100.00,NW,318,16.0,29.0,0,0.00,,,0.00,24.000000,,2013-01-30 15:11:00,
2013-01-30 09:34:00,32.0,-99.9,-100.00,NW,318,16.0,29.0,0,0.00,,,0.00,24.000000,,2013-01-30 15:34:00,
2013-01-30 09:44:00,32.0,-99.9,-100.00,NW,318,16.0,29.0,0,0.00,,,0.00,24.000000,,2013-01-30 15:44:00,
2013-01-30 09:54:00,32.0,-99.9,-100.00,NW,318,16.0,29.0,0,0.00,,,0.00,24.000000,,2013-01-30 15:54:00,
2013-01-30 10:03:00,32.0,-99.9,-100.00,NW,318,16.0,29.0,0,0.00,,,0.00,24.000000,,2013-01-30 16:03:00,
2013-01-30 10:11:00,32.0,-99.9,-100.00,NW,321,14.0,25.0,0,0.00,,,0.00,92.000000,,2013-01-30 16:11:00,
2013-01-30 10:33:00,32.0,-99.9,-100.00,NW,321,14.0,25.0,0,0.00,,,0.00,92.000000,,2013-01-30 16:33:00,
2013-01-30 10:43:00,32.0,-99.9,-100.00,NW,321,14.0,25.0,0,0.00,,,0.00,92.000000,,2013-01-30 16:43:00,
2013-01-30 10:53:00,32.0,-99.9,-100.00,NW,321,14.0,25.0,0,0.00,,,0.00,92.000000,,2013-01-30 16:53:00,
2013-01-30 11:03:00,32.0,-99.9,-100.00,NW,321,14.0,25.0,0,0.00,,,0.00,92.000000,,2013-01-30 17:03:00,
2013-01-30 11:11:00,32.0,-99.9,-100.00,NW,325,16.0,27.0,0,0.00,,,0.00,141.000000,,2013-01-30 17:11:00,
2013-01-30 11:34:00,32.0,-99.9,-100.00,NW,325,16.0,27.0,0,0.00,,,0.00,141.000000,,2013-01-30 17:34:00,
2013-01-30 11:43:00,32.0,-99.9,-100.00,NW,325,16.0,27.0,0,0.00,,,0.00,141.000000,,2013-01-30 17:43:00,
2013-01-30 11:53:00,32.0,-99.9,-100.00,NW,325,16.0,27.0,0,0.00,,,0.00,141.000000,,2013-01-30 17:53:00,
2013-01-30 12:04:00,32.0,-99.9,-100.00,NW,325,16.0,27.0,0,0.00,,,0.00,141.000000,,2013-01-30 18:04:00,
2013-01-30 12:11:00,32.0,-99.9,-100.00,NW,316,12.0,26.0,0,0.00,,,0.00,177.000000,,2013-01-30 18:11:00,
2013-01-30 12:33:00,32.0,-99.9,-100.00,NW,316,12.0,26.0,0,0.00,,,0.00,177.000000,,2013-01-30 18:33:00,
2013-01-30 12:43:00,32.0,-99.9,-100.00,NW,316,12.0,26.0,0,0.00,,,0.00,177.000000,,2013-01-30 18:43:00,
2013-01-30 12:53:00,32.0,-99.9,-100.00,NW,316,12.0,26.0,0,0.00,,,0.00,177.000000,,2013-01-30 18:53:00,
2013-01-30 13:03:00,32.0,-99.9,-100.00,NW,316,12.0,26.0,0,0.00,,,0.00,177.000000,,2013-01-30 19:03:00,
2013-01-30 13:11:00,32.0,-99.9,-100.00,NW,316,14.0,23.0,0,0.00,,,0.00,185.000000,,2013-01-30 19:11:00,
2013-01-30 13:44:00,32.0,-99.9,-100.00,NW,316,14.0,23.0,0,0.00,,,0.00,185.000000,,2013-01-30 19:44:00,
2013-01-30 13:53:00,32.0,-99.9,-100.00,NW,316,14.0,23.0,0,0.00,,,0.00,185.000000,,2013-01-30 19:53:00,
2013-01-30 14:04:00,32.0,-99.9,-100.00,NW,316,14.0,23.0,0,0.00,,,0.00,185.000000,,2013-01-30 20:04:00,
2013-01-30 14:11:00,32.0,-99.9,-100.00,NW,318,14.0,23.0,0,0.00,,,0.00,228.000000,,2013-01-30 20:11:00,
2013-01-30 14:33:00,32.0,-99.9,-100.00,NW,318,14.0,23.0,0,0.00,,,0.00,228.000000,,2013-01-30 20:33:00,
2013-01-30 14:43:00,32.0,-99.9,-100.00,NW,318,14.0,23.0,0,0.00,,,0.00,228.000000,,2013-01-30 20:43:00,
2013-01-30 14:53:00,32.0,-99.9,-100.00,NW,318,14.0,23.0,0,0.00,,,0.00,228.000000,,2013-01-30 20:53:00,
2013-01-30 15:04:00,32.0,-99.9,-100.00,NW,318,14.0,23.0,0,0.00,,,0.00,228.000000,,2013-01-30 21:04:00,
2013-01-30 15:11:00,32.0,-99.9,-100.00,NW,315,14.0,21.0,0,0.00,,,0.00,194.000000,,2013-01-30 21:11:00,
2013-01-30 15:43:00,32.0,-99.9,-100.00,NW,315,14.0,21.0,0,0.00,,,0.00,194.000000,,2013-01-30 21:43:00,
2013-01-30 15:53:00,32.0,-99.9,-100.00,NW,315,14.0,21.0,0,0.00,,,0.00,194.000000,,2013-01-30 21:53:00,
2013-01-30 16:04:00,32.0,-99.9,-100.00,NW,315,14.0,21.0,0,0.00,,,0.00,194.000000,,2013-01-30 22:04:00,
2013-01-30 16:11:00,32.0,-99.9,-100.00,NW,305,13.0,21.0,0,0.00,,,0.00,91.000000,,2013-01-30 22:11:00,
2013-01-30 16:43:00,32.0,-99.9,-100.00,NW,305,13.0,21.0,0,0.00,,,0.00,91.000000,,2013-01-30 22:43:00,
2013-01-30 16:53:00,32.0,-99.9,-100.00,NW,305,13.0,21.0,0,0.00,,,0.00,91.000000,,2013-01-30 22:53:00,
2013-01-30 17:03:00,32.0,-99.9,-100.00,NW,305,13.0,21.0,0,0.00,,,0.00,91.000000,,2013-01-30 23:03:00,
2013-01-30 17:11:00,32.0,-99.9,-100.00,NW,323,11.0,19.0,0,0.00,,,0.00,37.000000,,2013-01-30 23:11:00,
2013-01-30 17:33:00,32.0,-99.9,-100.00,NW,323,11.0,19.0,0,0.00,,,0.00,37.000000,,2013-01-30 23:33:00,
2013-01-30 17:43:00,32.0,-99.9,-100.00,NW,323,11.0,19.0,0,0.00,,,0.00,37.000000,,2013-01-30 23:43:00,
2013-01-30 17:53:00,32.0,-99.9,-100.00,NW,323,11.0,19.0,0,0.00,,,0.00,37.000000,,2013-01-30 23:53:00,
2013-01-30 18:02:00,32.0,-99.9,-100.00,NW,323,11.0,19.0,0,0.00,,,0.00,37.000000,,2013-01-31 00:02:00,
2013-01-30 18:11:00,32.0,-99.9,-100.00,NW,313,13.0,19.0,0,0.00,,,0.00,4.000000,,2013-01-31 00:11:00,
2013-01-30 18:32:00,32.0,-99.9,-100.00,NW,313,13.0,19.0,0,0.00,,,0.00,4.000000,,2013-01-31 00:32:00,
2013-01-30 18:43:00,32.0,-99.9,-100.00,NW,313,13.0,19.0,0,0.00,,,0.00,4.000000,,2013-01-31 00:43:00,
2013-01-30 18:53:00,32.0,-99.9,-100.00,NW,313,13.0,19.0,0,0.00,,,0.00,4.000000,,2013-01-31 00:53:00,
2013-01-30 19:02:00,32.0,-99.9,-100.00,NW,313,13.0,19.0,0,0.00,,,0.00,4.000000,,2013-01-31 01:02:00,
2013-01-30 20:11:00,32.0,-99.9,-100.00,NW,317,10.0,17.0,0,-99.99,,,0.00,0.000000,,2013-01-31 02:11:00,
2013-01-30 21:03:00,32.0,-99.9,-100.00,NW,317,10.0,17.0,0,-99.99,,,0.00,0.000000,,2013-01-31 03:03:00,
2013-01-30 21:11:00,32.0,-99.9,-100.00,NW,316,11.0,18.0,0,0.00,,,0.00,0.000000,,2013-01-31 03:11:00,
2013-01-30 21:33:00,32.0,-99.9,-100.00,NW,316,11.0,18.0,0,0.00,,,0.00,0.000000,,2013-01-31 03:33:00,
2013-01-30 21:42:00,32.0,-99.9,-100.00,NW,316,11.0,18.0,0,0.00,,,0.00,0.000000,,2013-01-31 03:42:00,
2013-01-30 21:52:00,32.0,-99.9,-100.00,NW,316,11.0,18.0,0,0.00,,,0.00,0.000000,,2013-01-31 03:52:00,
2013-01-30 22:02:00,32.0,-99.9,-100.00,NW,316,11.0,18.0,0,0.00,,,0.00,0.000000,,2013-01-31 04:02:00,
2013-01-30 22:11:00,32.0,-99.9,-100.00,NW,321,13.0,22.0,0,0.00,,,0.00,0.000000,,2013-01-31 04:11:00,
2013-01-30 22:32:00,32.0,-99.9,-100.00,NW,321,13.0,22.0,0,0.00,,,0.00,0.000000,,2013-01-31 04:32:00,
2013-01-30 22:42:00,32.0,-99.9,-100.00,NW,321,13.0,22.0,0,0.00,,,0.00,0.000000,,2013-01-31 04:42:00,
2013-01-30 22:52:00,32.0,-99.9,-100.00,NW,321,13.0,22.0,0,0.00,,,0.00,0.000000,,2013-01-31 04:52:00,
2013-01-30 23:04:00,32.0,-99.9,-100.00,NW,321,13.0,22.0,0,0.00,,,0.00,0.000000,,2013-01-31 05:04:00,
2013-01-30 23:11:00,32.0,-99.9,-100.00,NW,318,13.0,20.0,0,0.00,,,0.00,0.000000,,2013-01-31 05:11:00,
2013-01-30 23:42:00,32.0,-99.9,-100.00,NW,318,13.0,20.0,0,0.00,,,0.00,0.000000,,2013-01-31 05:42:00,
2013-01-30 23:52:00,32.0,-99.9,-100.00,NW,318,13.0,20.0,0,0.00,,,0.00,0.000000,,2013-01-31 05:52:00,